| time (UTC) | temp F | wind direction | speed MPH | gust MPH | rain 1hr in | rain 24hr in | rain mn in | humidity % | barometer mb |
| 20260505034505 | 60 | 279 | 0.0 | 2.0 | 0.00 | 0.00 | 0.00 | 66 | 1012.2 |
| 20260505033005 | 60 | 281 | 0.0 | 2.0 | 0.00 | 0.00 | 0.00 | 68 | 1012.2 |
| 20260505031505 | 60 | 280 | 0.0 | 2.0 | 0.00 | 0.00 | 0.00 | 69 | 1012.2 |
| 20260505030005 | 60 | 0 | 0.0 | 0.0 | 0.00 | 0.00 | 0.00 | 68 | 1012.2 |
| 20260505024505 | 60 | 0 | 0.0 | 0.0 | 0.00 | 0.00 | 0.00 | 68 | 1012.3 |
| 20260505023005 | 61 | 280 | 0.0 | 2.0 | 0.00 | 0.00 | 0.00 | 68 | 1012.2 |
| 20260505021526 | 61 | 0 | 0.0 | 0.0 | 0.00 | 0.00 | 0.00 | 69 | 1012.3 |
| 20260505020005 | 61 | 0 | 0.0 | 0.0 | 0.00 | 0.00 | 0.00 | 69 | 1012.3 |
| 20260505014505 | 61 | 0 | 0.0 | 0.0 | 0.00 | 0.00 | 0.00 | 69 | 1012.0 |
| 20260505013004 | 61 | 0 | 0.0 | 0.0 | 0.00 | 0.00 | 0.00 | 69 | 1011.9 |
| 20260505011525 | 62 | 0 | 0.0 | 0.0 | 0.00 | 0.00 | 0.00 | 68 | 1011.6 |
| 20260505010005 | 62 | 0 | 0.0 | 0.0 | 0.00 | 0.00 | 0.00 | 66 | 1011.4 |
| 20260505004504 | 64 | 0 | 0.0 | 0.0 | 0.00 | 0.00 | 0.00 | 64 | 1011.2 |
| 20260505003005 | 66 | 0 | 0.0 | 0.0 | 0.00 | 0.00 | 0.00 | 62 | 1011.2 |
| 20260505001504 | 68 | 0 | 0.0 | 0.0 | 0.00 | 0.00 | 0.00 | 59 | 1011.1 |
| 20260505000004 | 70 | 0 | 0.0 | 0.0 | 0.00 | 0.00 | 0.00 | 54 | 1011.0 |
| 20260504234504 | 72 | 0 | 0.0 | 0.0 | 0.00 | 0.00 | 0.00 | 51 | 1011.0 |
| 20260504233004 | 74 | 280 | 0.0 | 2.0 | 0.00 | 0.00 | 0.00 | 49 | 1010.9 |
| 20260504231504 | 76 | 0 | 0.0 | 0.0 | 0.00 | 0.00 | 0.00 | 46 | 1010.8 |
| 20260504230005 | 78 | 341 | 0.0 | 2.0 | 0.00 | 0.00 | 0.00 | 43 | 1010.8 |
| 20260504224525 | 79 | 90 | 0.0 | 4.0 | 0.00 | 0.00 | 0.00 | 43 | 1011.0 |
| 20260504223004 | 79 | 256 | 0.0 | 5.0 | 0.00 | 0.00 | 0.00 | 42 | 1011.2 |
| 20260504221504 | 78 | 91 | 0.0 | 2.0 | 0.00 | 0.00 | 0.00 | 45 | 1011.3 |
| 20260504220025 | 77 | 105 | 0.0 | 2.0 | 0.00 | 0.00 | 0.00 | 45 | 1011.3 |
| 20260504214504 | 76 | 233 | 0.0 | 4.0 | 0.00 | 0.00 | 0.00 | 42 | 1011.2 |
| 20260504213004 | 77 | 263 | 0.0 | 5.0 | 0.00 | 0.00 | 0.00 | 42 | 1011.3 |
| 20260504211504 | 78 | 286 | 0.0 | 4.0 | 0.00 | 0.00 | 0.00 | 42 | 1011.3 |
| 20260504210004 | 79 | 294 | 0.0 | 5.0 | 0.00 | 0.00 | 0.00 | 40 | 1011.4 |
| 20260504204525 | 79 | 274 | 0.0 | 7.0 | 0.00 | 0.00 | 0.00 | 40 | 1011.2 |
| 20260504203004 | 78 | 257 | 2.0 | 5.0 | 0.00 | 0.00 | 0.00 | 39 | 1011.4 |
| 20260504201504 | 80 | 301 | 0.0 | 4.0 | 0.00 | 0.00 | 0.00 | 41 | 1011.5 |
| 20260504200004 | 79 | 223 | 2.0 | 4.0 | 0.00 | 0.00 | 0.00 | 40 | 1011.6 |
| 20260504194503 | 80 | 288 | 2.0 | 7.0 | 0.00 | 0.00 | 0.00 | 37 | 1012.0 |
| 20260504193004 | 79 | 334 | 2.0 | 10.0 | 0.00 | 0.00 | 0.00 | 41 | 1012.2 |
| 20260504191504 | 79 | 287 | 4.0 | 12.0 | 0.00 | 0.00 | 0.00 | 37 | 1012.1 |
| 20260504190004 | 80 | 260 | 2.0 | 12.0 | 0.00 | 0.00 | 0.00 | 35 | 1012.2 |
| 20260504184503 | 80 | 300 | 4.0 | 14.0 | 0.00 | 0.00 | 0.00 | 36 | 1012.5 |
| 20260504183024 | 80 | 350 | 4.0 | 12.0 | 0.00 | 0.00 | 0.00 | 35 | 1012.4 |
| 20260504181503 | 79 | 282 | 4.0 | 12.0 | 0.00 | 0.00 | 0.00 | 35 | 1012.7 |
| 20260504180004 | 78 | 291 | 4.0 | 16.0 | 0.00 | 0.00 | 0.00 | 32 | 1012.9 |
| 20260504174504 | 78 | 283 | 4.0 | 14.0 | 0.00 | 0.00 | 0.00 | 37 | 1012.9 |
| 20260504173003 | 78 | 297 | 4.0 | 10.0 | 0.00 | 0.00 | 0.00 | 36 | 1013.0 |
| 20260504171504 | 77 | 293 | 4.0 | 9.0 | 0.00 | 0.00 | 0.00 | 35 | 1013.3 |
| 20260504081526 | 40 | 0 | 0.0 | 0.0 | 0.00 | 0.00 | 0.00 | 89 | 1015.9 |
| 20260504050005 | 39 | 0 | 0.0 | 0.0 | 0.00 | 0.00 | 0.00 | 90 | 1015.9 |
| 20260504044505 | 39 | 0 | 0.0 | 0.0 | 0.00 | 0.00 | 0.00 | 89 | 1015.8 |
| 20260504043005 | 40 | 0 | 0.0 | 0.0 | 0.00 | 0.00 | 0.00 | 89 | 1015.7 |
| 20260504041505 | 40 | 0 | 0.0 | 0.0 | 0.00 | 0.00 | 0.00 | 88 | 1015.6 |